This is the latest recevied weather packets stored in our database for station/object N9BLE. If no packets are shown the sender has not sent any weather packets the latest 10 day(s).
| Time | Temp. | Humidity | Pressure | Rain* | Wind** | Luminosity | Snow |
|---|---|---|---|---|---|---|---|
| 1777850528 | 20° C | 45% | 1009.8 hPa | 0 mm | - | 45 W/m² | - |
| 1777850227 | 20° C | 47% | 1009.6 hPa | 0 mm | - | 46 W/m² | - |
| 1777849923 | 20° C | 45% | 1009.5 hPa | 0 mm | - | 46 W/m² | - |
| 1777849619 | 20° C | 45% | 1009.8 hPa | 0 mm | - | 47 W/m² | - |
| 1777849316 | 20° C | 45% | 1009.8 hPa | 0 mm | - | 48 W/m² | - |
| 1777849014 | 20° C | 43% | 1009.7 hPa | 0 mm | - | 50 W/m² | - |
| 1777848714 | 20° C | 45% | 1009.9 hPa | 0 mm | - | 52 W/m² | - |
| 1777848411 | 20.56° C | 44% | 1009.7 hPa | 0 mm | - | 55 W/m² | - |
| 1777848109 | 20.56° C | 45% | 1010 hPa | 0 mm | - | 58 W/m² | - |
| 1777847807 | 20.56° C | 44% | 1010 hPa | 0 mm | - | 65 W/m² | - |
| 1777847503 | 20.56° C | 43% | 1010 hPa | 0 mm | - | 244 W/m² | - |
| 1777847201 | 20.56° C | 44% | 1010.1 hPa | 0 mm | - | 259 W/m² | - |
| 1777846898 | 20.56° C | 42% | 1009.9 hPa | 0 mm | - | 276 W/m² | - |
| 1777846596 | 20.56° C | 44% | 1010.1 hPa | 0 mm | - | 288 W/m² | - |
| 1777846293 | 20.56° C | 43% | 1010.1 hPa | 0 mm | - | 303 W/m² | - |
| 1777845990 | 20.56° C | 42% | 1009.8 hPa | 0 mm | - | 318 W/m² | - |
| 1777845687 | 20.56° C | 44% | 1010.2 hPa | 0 mm | - | 334 W/m² | - |
| 1777845384 | 21.11° C | 43% | 1009.9 hPa | 0 mm | - | 251 W/m² | - |
| 1777845080 | 20.56° C | 45% | 1010.1 hPa | 0 mm | - | 364 W/m² | - |
| 1777844779 | 20.56° C | 42% | 1010 hPa | 0 mm | - | 382 W/m² | - |
| 1777844475 | 21.11° C | 43% | 1010.1 hPa | 0 mm | - | 395 W/m² | - |
| 1777844175 | 21.11° C | 45% | 1010.2 hPa | 0 mm | - | 397 W/m² | - |
| 1777843870 | 21.11° C | 46% | 1010.2 hPa | 0 mm | - | 430 W/m² | - |
| 1777843568 | 21.11° C | 45% | 1010.1 hPa | 0 mm | - | 330 W/m² | - |
| 1777843265 | 21.11° C | 42% | 1010.1 hPa | 0 mm | - | 511 W/m² | - |
* Rain latest hour (hover to see other rain measurements)
** Current wind speed in m/s (hover to see current wind gust speed)